User: anonymous   Login
Location: Unspecified
(0.0000°N, 0.0000°E)
Time: 18:14:21
(UTC+00:00)
Language:

ITAMSAT 1 - Orbit

View from above orbital plane
View from above orbital plane
View from above satellite
View from above satellite

Ground track
Ground track

The orbit data is extracted from the following two-line orbital elements,

1 22826U 93061D   24285.86964510  .00000975  00000-0  38755-3 0  9991
2 22826  98.7695 339.6584 0010031  83.9796 276.2529 14.31008809619835
Epoch (UTC): 11 October 2024 20:52:17
Eccentricity: 0.0010031
inclination: 98.7695°
perigee height: 781 km
apogee height: 795 km
right ascension of ascending node: 339.6584°
argument of perigee: 83.9796°
revolutions per day: 14.31008809
mean anomaly at epoch: 276.2529°
orbit number at epoch: 61983

The dashed part of the orbit path shows where the satellite is in the earth's shadow,  

DLR